Weather History for Miles City, MT

Change the Weather History Date:

Monday, July 29, 2013

  Actual Average Record
Temperature  
Mean Temperature 69 °F 76 °F  
Max Temperature 80 °F 90 °F 106 °F (1995)
Min Temperature 57 °F 61 °F 48 °F (1948)
Degree Days  
Heating Degree Days 0 0  
Month to date heating degree days 0 10  
Since 1 June heating degree days 59 99  
Since 1 July heating degree days 0 10  
Cooling Degree Days 4 11  
Month to date cooling degree days 307 269  
Year to date cooling degree days 413 396  
Since 1 June cooling degree days 400 376  
Growing Degree Days 18 (Base 50)    
Moisture  
Dew Point 54 °F    
Average Humidity 62    
Maximum Humidity 87    
Minimum Humidity 37    
Precipitation  
Precipitation 0.29 in 0.05 in 2.22 in (1985)
Month to date precipitation 0.91 1.55  
Year to date precipitation 11.94 8.76  
Sea Level Pressure  
Sea Level Pressure 29.96 in    
Wind  
Wind Speed 8 mph (NNW)    
Max Wind Speed 21 mph    
Max Gust Speed 26 mph    
Visibility 8 miles    
Events Rain , Thunderstorm    
T = Trace of Precipitation, MM = Missing Value Source: NWS Daily Summary

Daily Weather History Graph

Daily Weather History Graph

Search for Another Location

Airport:

Trip Planner

Search our weather history database for the weather conditions in past years. The results will help you decide how hot, cold, wet, or windy it might be!

Date:

Astronomy

Jul. 29, 2013 Rise Set
Actual Time 5:41 AM MDT 8:37 PM MDT
Civil Twilight 5:06 AM MDT 9:12 PM MDT
Nautical Twilight 4:20 AM MDT 9:58 PM MDT
Astronomical Twilight 3:26 AM MDT 10:51 PM MDT
Moon No Moon Rise 1:57 PM MDT (7/29)
Length of Visible Light 16h 06m
Length of Day
14h 56m
Waning Gibbous, 50% of the Moon is Illuminated
Jul 29
Waning Gibbous
Aug 6
New
Aug 14
First Quarter
Aug 20
Full
Aug 28
Last Quarter

Hourly Weather History & Observations

Time (MDT) Temp. Dew Point Humidity Pressure Visibility Wind Dir Wind Speed Gust Speed Precip Events Conditions
12:53 AM 66.9 °F 54.0 °F 63% 29.81 in 10.0 mi ESE 12.7 mph - N/A   Partly Cloudy
1:53 AM 66.0 °F 55.0 °F 68% 29.80 in 10.0 mi SE 6.9 mph - N/A   Clear
2:53 AM 64.9 °F 53.1 °F 65% 29.79 in 10.0 mi ESE 6.9 mph - N/A   Clear
3:53 AM 62.1 °F 52.0 °F 70% 29.81 in 10.0 mi NW 4.6 mph - N/A   Clear
4:53 AM 57.9 °F 53.1 °F 84% 29.84 in 10.0 mi NNW 3.5 mph - N/A   Clear
5:53 AM 57.0 °F 52.0 °F 83% 29.89 in 10.0 mi NNW 6.9 mph - N/A   Clear
6:53 AM 62.1 °F 52.0 °F 70% 29.90 in 10.0 mi NNW 11.5 mph - N/A   Clear
7:53 AM 66.9 °F 55.0 °F 66% 29.91 in 10.0 mi NNE 12.7 mph - N/A   Partly Cloudy
8:34 AM 62.6 °F 57.2 °F 82% 30.01 in 1.8 mi NW 10.4 mph - 0.08 in Rain Heavy Rain
8:41 AM 62.6 °F 57.2 °F 82% 30.02 in 2.5 mi WNW 13.8 mph - 0.10 in Rain Rain
8:48 AM 60.8 °F 57.2 °F 88% 30.03 in 4.0 mi WNW 19.6 mph 24.2 mph 0.11 in Rain Rain
8:53 AM 60.1 °F 57.0 °F 90% 30.01 in 2.0 mi West 15.0 mph 24.2 mph 0.18 in Rain , Thunderstorm Heavy Thunderstorms and Rain
9:08 AM 59.0 °F 57.2 °F 94% 30.05 in 4.0 mi West 15.0 mph - 0.03 in Rain , Thunderstorm Thunderstorms and Rain
9:18 AM 57.2 °F 57.2 °F 100% 30.05 in 4.0 mi WNW 11.5 mph - 0.05 in Rain Rain
9:53 AM 61.0 °F 59.0 °F 93% 29.99 in 10.0 mi North 8.1 mph - 0.11 in   Scattered Clouds
10:53 AM 64.9 °F 60.1 °F 84% 29.99 in 10.0 mi North 6.9 mph - N/A   Clear
11:53 AM 66.0 °F 60.1 °F 81% 29.99 in 10.0 mi WSW 8.1 mph - N/A   Clear
1:53 PM 75.0 °F 52.0 °F 44% 29.98 in 10.0 mi NW 10.4 mph 16.1 mph N/A   Clear
2:53 PM 75.9 °F 51.1 °F 42% 29.98 in 10.0 mi NW 11.5 mph - N/A   Clear
3:53 PM 78.1 °F 50.0 °F 37% 29.97 in 10.0 mi NNW 6.9 mph - N/A   Mostly Cloudy
4:53 PM 75.9 °F 50.0 °F 40% 29.99 in 10.0 mi North 5.8 mph - N/A   Mostly Cloudy
5:53 PM 78.1 °F 51.1 °F 39% 29.98 in 10.0 mi NNE 15.0 mph - N/A   Partly Cloudy
6:53 PM 77.0 °F 50.0 °F 39% 29.99 in 10.0 mi NNE 6.9 mph - N/A   Clear
7:53 PM 73.9 °F 51.1 °F 45% 29.99 in 10.0 mi NE 6.9 mph - N/A   Clear
8:53 PM 68.0 °F 54.0 °F 61% 30.03 in 10.0 mi NE 6.9 mph - N/A   Clear
9:53 PM 66.0 °F 54.0 °F 65% 30.04 in 10.0 mi NNE 5.8 mph - N/A   Clear
10:53 PM 63.0 °F 54.0 °F 72% 30.04 in 10.0 mi NE 6.9 mph - N/A   Clear
11:53 PM 62.1 °F 53.1 °F 72% 30.03 in 10.0 mi NNE 6.9 mph - N/A   Clear